Regional Weather Roundup
Issued by NWS Upton, NY

Current Version | Previous Version | Graphics & Text | Print | Product List | Glossary Off
Versions: 1 2 3 4 5 6 7 8 9 10 11 12 13 14 15 16 17 18 19 20 21 22 23 24 25 26 27

000
ASUS41 KOKX 012308
RWROKX

REGIONAL WEATHER ROUNDUP
NATIONAL WEATHER SERVICE NEW YORK NY
600 PM EST THU DEC 01 2016

NOTE: "FAIR" INDICATES FEW OR NO CLOUDS BELOW 12,000 FEET WITH NO
SIGNIFICANT WEATHER AND/OR OBSTRUCTIONS TO VISIBILITY.

NYZ071-072-176-178-NJZ106-104-020000-
NEW YORK CITY METRO AREA

CITY           SKY/WX    TMP DP  RH WIND       PRES   REMARKS
Central Park   CLOUDY    49  28  44 W12G18    29.77R
Wall St Helipt CLOUDY    50  32  50 W10G23    29.76R
Bronx Bot Gard NOT AVBL
LaGuardia APRT CLOUDY    51  29  42 W14G25    29.75R
Kennedy INTL   CLOUDY    50  28  42 W20G31    29.76R
Breezy Point     N/A     48 N/A N/A W16G29      N/A
Newark/Liberty CLOUDY    49  30  48 W13G22    29.76R
Teterboro      CLOUDY    49  29  46 W16G22    29.74R
$$

NYZ177-179-078>081-020000-
LONG ISLAND NEW YORK

CITY           SKY/WX    TMP DP  RH WIND       PRES   REMARKS
Jones Beach      N/A     48 N/A N/A W21G26      N/A
Matinecock PT  NOT AVBL
Farmingdale    CLOUDY    49  29  46 W12G25    29.74R
MacArthur/ISP  MOCLDY    49  30  48 W15       29.73R
Shirley        CLOUDY    48  31  51 W12G22    29.73R
Westhampton    CLOUDY    49  31  49 W8G25     29.72R
Southampton    NOT AVBL
Bridgehampton  NOT AVBL
East Hampton   CLOUDY    49  33  54 W8G18     29.69R
Montauk          N/A     50  36  58 W13G24    29.68R
$$

NYZ052-065-067-020000-
HUDSON VALLEY

CITY           SKY/WX    TMP DP  RH WIND       PRES   REMARKS
White Plains   MOCLDY    47  30  51 W9        29.72R
Newburgh       CLEAR     41  34  75 W12       29.74R
Montgomery     CLEAR     42  32  67 SW7       29.73R
Poughkeepsie   CLEAR     43  31  62 W13       29.72R
Albany         PTCLDY    41  32  70 W6        29.68R
$$

NJZ001-105-106-008-010-013-015-019>022-104-020000-
NEW JERSEY

CITY           SKY/WX    TMP DP  RH WIND       PRES   REMARKS
Newark/Liberty CLOUDY    49  30  48 W13G22    29.76R
Teterboro      CLOUDY    49  29  46 W16G22    29.74R
Caldwell       CLOUDY    48  29  47 W12       29.76R
Somerville     CLOUDY    47  28  47 W10G23    29.78R
Linden         CLOUDY    48  30  49 W13G24    29.77R
Sussex         CLOUDY    45  31  58 VRB7      29.75R
Andover          N/A     44  28  53 W8        29.76R
Trenton        CLOUDY    48  30  49 W13G26    29.80R
Millville      CLEAR     46  33  60 W5        29.83R
Atlantic City  MOCLDY    50  30  46 W14G21    29.81R
Wrightstown    CLOUDY    49  33  53 NW15      29.78R
Toms River     CLOUDY    50  33  52 W14G20    29.80R
Belmar         CLOUDY   N/A N/A N/A W13G21    29.79R
$$

PAZ047>061-062-071-020000-
EASTERN PENNSYLVANIA

CITY           SKY/WX    TMP DP  RH WIND       PRES   REMARKS
Philadelphia   CLOUDY    50  31  48 NW10      29.84R
Allentown      CLOUDY    45  28  51 W9        29.81R
Scranton       CLOUDY    41  29  62 SW10      29.78R
$$

CTZ002-004>006-009-010-012-RIZ004-006-007-MAZ004-011-015-020000-
SOUTHERN NEW ENGLAND
 IN CT

CITY           SKY/WX    TMP DP  RH WIND       PRES   REMARKS
Bradley INTL   DRIZZLE   48  33  56 W14       29.66R
Hartford       CLOUDY    48  33  56 VRB7      29.67R
Danbury        PTCLDY    44  32  62 W12       29.72R
Wtrbury/Oxford MOCLDY    45  28  53 W12G21    29.69R
Bridgeport     MOCLDY    49  33  54 W9G18     29.71R
Meriden        CLOUDY    49  31  49 W6        29.69R
New Haven      CLOUDY    49  34  56 W7        29.70R
Chester        CLOUDY    48  32  53 W8        29.67R
Groton         CLOUDY    52  33  48 W14       29.66R
Wilimantic     CLOUDY    50  35  56 W7        29.66R

 IN RI

CITY           SKY/WX    TMP DP  RH WIND       PRES   REMARKS
Providence     MOCLDY    50  32  50 NW6       29.63R
Block Island   CLOUDY    50  35  56 W18G26    29.66R
Westerly       CLOUDY    50  30  46 W7G17     29.66R
 IN MA

CITY           SKY/WX    TMP DP  RH WIND       PRES   REMARKS
Boston         CLOUDY    50  34  54 W16       29.60R
Worcester      LGT RAIN  42  33  70 W12G21    29.61R
Westfield      CLOUDY    46  34  62 NW8       29.65R
Provincetown   CLOUDY    50  38  63 NW20G29   29.59R
Nantucket      MOCLDY    51  44  77 W14       29.59R
$$

ANZ330-335-338-340-345-350-353-355-020000-
COASTAL MARINE OBSERVATIONS


STATION/POSITION TIME  SKY/WX   TEMP    WIND        PRES    VSBY  WAVE
                                AIR SEA DIR/SP/G                  HT/PER
                 (UTC)          (F)     (DEG/KT/KT) (MB)    (MI)  (FT/S)
NY HARB ENTRANCE 2250            51 54  280/ 21/ 25 1007.3          4/ 8
20 S FIRE ISLAND 2250            51 55  290/ 25/ 29 1006.4          8/ 6
GREAT SOUTH BAY  2230            49 46                N/A
23 SSW MONTAUK P 2250            51 56  270/ 23/ 29 1005.3          9/ 7
15 E BARNEGAT LI 2230               55                N/A           5/ 8
HUDSON CANYON    2150            54 60              1006.2          9/ 6
KINGS POINT      2230            49 51              1006.6
EXECUTION ROCKS  2245            50     270/ 14/ 23   N/A
CENTRAL LI SOUND 2215            51 52  290/ 19/ 25   N/A           3/ 5
EASTERN LI SOUND NOT AVBL
ROBBINS REEF     2230            49     290/ 22/ 26 1007.3
$$


>>>>>>>>>>>>>>>>>>>>>>>>>>>> KEY <<<<<<<<<<<<<<<<<<<<<<<<<<<
>                                                          <
>     SKY/WX - Sky Condition/Present Weather               <
>     TMP    - Temperature in Fahrenheit                   <
>     DP     - Dew Point in Fahrenheit                     <
>     RH     - Relative Humidity in Percent                <
>     WIND   - Direction (from) and Speed in MPH           <
>     PRES   - Mean Sea Level Pressure (inches of Hg)      <
>     WCI    - Wind Chill Index                            <
>     VSB    - VISIBILITY IN MILES                         <
>     HX     - HEAT INDEX                                  <
>     TC     - TEMPERATURE IN CELSIUS                      <
>     VRB    - VARIABLE WIND DIRECTION                     <
>                                                          <
>>>>>>>>>>>>>>>>>>>>>>>>>>>> KEY <<<<<<<<<<<<<<<<<<<<<<<<<<<




USA.gov is the U.S. government's official web portal to all federal, state and local government web resources and services.